Regional Weather Roundup
Issued by NWS

Home | Current Version | Previous Version | Graphics & Text | Print | Product List | Glossary On
Versions: 1 2 3 4 5 6 7 8 9 10 11 12 13 14 15 16 17 18 19 20 21 22 23 24 25 26 27 28 29 30 31 32 33 34 35 36 37 38 39 40 41 42 43 44 45 46 47 48 49 50
000
ASUS43 KMKX 040221
RWRWI

WISCONSIN REGIONAL WEATHER ROUNDUP
NATIONAL WEATHER SERVICE MILWAUKEE/SULLIVAN WI
900 PM CDT THU SEP 03 2015

NOTE: "FAIR" INDICATES FEW OR NO CLOUDS BELOW 12,000 FEET WITH NO
SIGNIFICANT WEATHER AND/OR OBSTRUCTIONS TO VISIBILITY.

WIZ001-002-006>008-014>016-023>028-040300-
NORTHWEST WISCONSIN

CITY           SKY/WX    TMP DP  RH WIND       PRES   REMARKS
SUPERIOR ARPT  CLEAR     58  56  92 E5        29.97R
ASHLAND        CLEAR     55  55 100 CALM      29.98R FOG
HAYWARD        CLEAR     68  65  90 NE5       29.96R
SIREN          CLEAR     72  67  84 CALM      29.94R
CUMBERLAND     CLEAR     70  64  83 SE5       29.95R
RICE LAKE      CLEAR     70  65  86 E3        29.97R
CHETEK         CLEAR     71  67  89 SE5       29.95R
LADYSMITH      CLEAR     69  66  92 E6        29.98R
EAU CLAIRE     CLEAR     71  65  81 E7        29.93R
MENOMONIE      CLEAR     72  67  86 E6        29.93R
NEW RICHMOND   CLEAR     73  66  80 E9        29.92R
OSCEOLA        CLEAR     74  67  81 E7        29.94R
$$

WIZ003>005-009-010-017-018-040300-
NORTH CENTRAL WISCONSIN

CITY           SKY/WX    TMP DP  RH WIND       PRES   REMARKS
MANITOWISH WTR   N/A     62  62 100 CALM      30.01R FOG
ARBOR VITAE    CLEAR     66  63  91 CALM      30.01R
WOODRUFF       CLEAR     66  63  91 CALM      30.01R
RHINELANDER    CLEAR     65  62  90 CALM      30.01R
EAGLE RIVER    CLEAR     63  63 100 CALM      30.01R FOG
LAND O LAKES     N/A     63  63  99 CALM      30.03R FOG
PHILLIPS       CLEAR     68  65  90 CALM      29.99R
TOMAHAWK       CLEAR     62  61  95 CALM      30.01R
MEDFORD        CLEAR     67  66  96 E5        29.99S
MERRILL        FOG       63  63 100 CALM      30.00R VSB 1/2
$$

WIZ029-030-035-036-043>047-040300-
CENTRAL WISCONSIN

CITY           SKY/WX    TMP DP  RH WIND       PRES   REMARKS
WAUSAU         CLEAR     68  65  90 CALM      29.97R
MOSINEE        CLEAR     66  66 100 CALM      29.99R
MARSHFIELD     CLEAR     68  63  84 SE3       29.98R
STEVENS POINT  CLEAR     63  62  97 NE5       29.98R
WAUPACA        CLEAR     67  67  99 CALM      29.97R
WAUTOMA        CLEAR     66  66 100 CALM      29.98R
WISC RAPIDS    CLEAR     68  64  87 E3        29.98R
CAMP DOUGLAS   PTCLDY    72  72 100 E8        29.96R FOG
$$

WIZ011>013-019>022-031-037>040-048>050-040300-
NORTHEAST WISCONSIN

CITY           SKY/WX    TMP DP  RH WIND       PRES   REMARKS
ANTIGO         CLEAR     64  63  99 NE5       30.01R
SHAWANO        NOT AVBL
OCONTO         CLEAR     64  64 100 CALM      29.96R
STURGEON BAY   CLEAR     64  61  88 NW5       29.99R
GREEN BAY      CLEAR     68  64  87 NE6       29.96R
MANITOWOC      CLEAR     65  64  97 MISG      29.96R
APPLETON       PTCLDY    66  64  94 W6        29.95R
CLINTONVILLE   CLEAR     66  64  94 CALM      29.98R FOG
OSHKOSH        CLEAR     68  64  87 CALM      29.96R
$$

WIZ032>034-041-042-053>061-040300-
SOUTHWEST WISCONSIN

CITY           SKY/WX    TMP DP  RH WIND       PRES   REMARKS
LA CROSSE      PTCLDY    80  71  74 E9        29.90R HX  84
SPARTA         PTCLDY    75  65  71 E8        29.94R
VIROQUA          N/A     74  74  99 E7        29.94R
BOSCOBEL       MOCLDY    81  75  82 NE5       29.91R HX  87
PRAIRIE DU CHI CLEAR     79  73  81 CALM      29.89R HX  82
PLATTEVILLE    CLEAR     79  75  86 SE5       29.92R HX  83
$$

WIZ056-057-062-063-064-067-068-040300-
SOUTH CENTRAL WISCONSIN

CITY           SKY/WX    TMP DP  RH WIND       PRES   REMARKS
REEDSBURG      CLEAR     73  68  83 E6        29.95R
BARABOO/DELLS  CLEAR     71  65  80 E7        29.96R
LONE ROCK      CLEAR     76  71  85 E9        29.93R
MINERAL POINT  CLEAR     79  73  83 E7        29.94R HX  82
MADISON        PTCLDY    72  66  81 NE7       29.94R
MIDDLETON      PTCLDY    74  67  81 E7        29.95R
WATERTOWN      MOCLDY    71  70  99 NE5       29.95R
MONROE         PTCLDY    75  72  88 NE8       29.94R
JANESVILLE     MOCLDY    77  70  78 NE8       29.93R
$$

WIZ051-052-058>065-066-070>072-040300-
SOUTHEAST WISCONSIN

CITY           SKY/WX    TMP DP  RH WIND       PRES   REMARKS
MILWAUKEE      PTCLDY    65  63  93 N5        29.95R
WAUKESHA       MOCLDY    72  64  78 NE5       29.96R
MILWAUKEE/TIMM CLEAR     66  63  88 NE5       29.96R
RACINE         CLOUDY    66  63  90 NE6       29.97R
BURLINGTON     CLOUDY    69  64  82 E7        29.95R
KENOSHA        CLOUDY    70  66  87 NE5       29.96R
FOND DU LAC    CLEAR     67  65  93 W3        29.96R
SHEBOYGAN      CLEAR     62  62 100 N3        29.96R FOG
WEST BEND      CLEAR     66  63  88 CALM      29.96R
JUNEAU         CLEAR     68  65  90 N3        29.96S
$$

LSZ147-162-040300-
LAKE SUPERIOR

STATION/POSITION TIME  TEMP    WIND        PRES    WAVE
                       AIR SEA DIR/SP/G            HT/PER
                 (UTC) (F)     (DEG/KT/KT) (MB)    (FT/S)
W MID LAKE BUOY  0150   59 57   60/ 10/ 10 1015.1R   0
DEVILS ISLAND    0200   60      80/  6/  7 1015.3R
PORT WING        0100   56      40/  6/  9 1014.6S
SAXON HARBOR     0100   60        CALM     1014.6R
$$

LMZ867-665-643>646-040300-
LAKE MICHIGAN

STATION/POSITION TIME  TEMP    WIND        PRES    WAVE
                       AIR SEA DIR/SP/G            HT/PER
                 (UTC) (F)     (DEG/KT/KT) (MB)    (FT/S)
CHAMBERS ISLAND  0100   66     330/  6/  6 1014.2R
S GREEN BAY BUOY 2330   69 67   40/  8/ 10 1015.1
N MID LAKE BUOY  0150   69 66   70/ 14/ 16 1013.9R   1/ 3
NORTHPORT PIER   0100   68     360/  5/  6 1013.9R
SISTER BAY       0111   67        CALM       N/A
ALGOMA LAKESHORE 0144          330/  4/  5   N/A
KEWAUNEE LAKESHO 0200   66     350/  4/  6 1013.4R
SHEBOYGAN LAKESH 0200   63     360/ 10/ 10 1014.6R
PORT WASHINGTON  0100   65     350/  3/  5 1014.2S
ATWATER BUOY     0200   59     350/  6/  8 1015.5R
MILWAUKEE LAKESH 0210   65      30/  5/  6   N/A
S MID LAKE BUOY  0050   70 71  360/ 12/ 14 1012.4R   1/ 3
KENOSHA   LAKESH 0200   67     350/  7/  7 1013.9R
$$

TC  - TEMPERATURE IN CELSIUS
VSB - VISIBILITY IN STATUTE MILES
WCI - WIND CHILL INDEX
HX  - HEAT INDEX



USA.gov is the U.S. government's official web portal to all federal, state and local government web resources and services.